P/2011 NO1 ( Elenin )

Japanese version
Home page
Updated on February 21, 2021

---------------------------------------------------------------------

* Profile

Discovery Date July 7, 2011
Magnitude 19.5 mag
Discoverer L. Elenin (Lyubertsy, Russia) and I. Molotov (Moscow, Russia)

* Pictures

* Orbital Elements

Epoch 2011 Feb. 8.0 TT = JDT 2455600.5                                          
T 2011 Jan. 20.18115 TT                                 Rudenko                 
q   1.2409526            (2000.0)            P               Q                  
n   0.07398018     Peri.  263.44281     -0.91031328     +0.33845130             
a   5.6198636      Node   296.11603     -0.18789157     -0.85083334             
e   0.7791846      Incl.   15.38957     -0.36881769     -0.40191213             
P  13.3                                                                         
From 62 observations 2011 June 12-Aug. 2, mean residual 1".2.                   

* Finding Charts

* Magnitudes Graph

        m1 = 14.5 + 5 log d + 10.0 log r

---------------------------------------------------------------------

The orbital elements are published on M.P.E.C. 2021-B143.
The charts are made with StellaNavigator Ver.8 (AstroArts).
The magnitudes graphs are made with Comet for Windows.

---------------------------------------------------------------------

Copyright(C) Seiichi Yoshida (comet@aerith.net). All rights reserved.